Regional Weather Roundup
Issued by NWS

Home | Current Version | Previous Version | Text Only | Print | Product List | Glossary On
Versions: 1 2 3 4 5 6 7 8 9 10 11 12 13 14 15 16 17 18 19 20 21 22 23 24 25 26 27 28 29 30 31 32 33 34 35 36 37 38 39 40 41 42 43 44 45 46 47 48 49 50
000
ASUS44 KJAN 200010
RWRMS

MISSISSIPPI HOURLY WEATHER ROUNDUP
NATIONAL WEATHER SERVICE JACKSON MS
600 PM CST FRI DEC 19 2014

NOTE: "FAIR: INDICATES FEW OR NO CLOUDS BELOW 12,000 FEET WITH NO
SIGNIFICANT WEATHER AND/OR OBSTRUCTIONS TO VISIBILITY.

MSZ001>002-007>008-010>013-018>021-025>028-034>036-200100-
NORTHWEST MISSISSIPPI

CITY           SKY/WX    TMP DP  RH WIND       PRES   REMARKS
CLARKSDALE     CLOUDY    45  39  81 NE6       30.22R
CLEVELAND      CLOUDY    44  42  92 N12       30.21R
GREENWOOD      LGT RAIN  45  44  97 NE8       30.17S
6HR MIN TEMP:  45; 6HR MAX TEMP:  49; 6HR PCP:  0.06;

GREENVILLE     CLOUDY    45  41  86 N13       30.20R
6HR MIN TEMP:  45; 6HR MAX TEMP:  47; 6HR PCP: TRACE;

GRENADA        DRIZZLE   43  41  93 CALM      30.19R
OLIVE BRANCH   CLOUDY    39  37  93 CALM      30.22R
OXFORD         FAIR      39  36  87 NE3       30.21R
TUNICA         CLOUDY    43  37  81 N5        30.22R
$$

MSZ003>006-009-014>017-022>024-029>033-037>039-200100-
NORTHEAST MISSISSIPPI

CITY           SKY/WX    TMP DP  RH WIND       PRES   REMARKS
COLUMBUS AFB   LGT RAIN  44  38  79 CALM      30.20R
6HR MIN TEMP:  44; 6HR MAX TEMP:  49; 6HR PCP: TRACE;

CORINTH        CLOUDY    41  32  70 CALM      30.20R
GOLDN TRIANGLE CLOUDY    45  39  81 N6        30.19R
STARKVILLE     LGT RAIN  45  41  87 NE3       30.19R
TUPELO         CLOUDY    43  36  76 NE7       30.19R
6HR MIN TEMP:  43; 6HR MAX TEMP:  46;

$$

MSZ040-058-200100-
CENTRAL MISSISSIPPI

CITY           SKY/WX    TMP DP  RH WIND       PRES   REMARKS
JACKSON INTL   LGT RAIN  46  44  93 CALM      30.16F
6HR MIN TEMP:  46; 6HR MAX TEMP:  47; 6HR PCP:  0.26;

JACKSON HAWKNS LGT RAIN  45  43  93 E5        30.16F
6HR MIN TEMP:  45; 6HR MAX TEMP:  48; 6HR PCP:  0.25;

MERIDIAN KEY   RAIN      44  42  93 NE5       30.19R
6HR MIN TEMP:  44; 6HR MAX TEMP:  50; 6HR PCP:  0.20;

MERIDIAN NAS   RAIN      44  43  96 CALM      30.19R FOG
6HR MIN TEMP:  44; 6HR MAX TEMP:  49; 6HR PCP:  0.15;

RAYMOND        FAIR      46  41  81 E10G16    30.15F
VICKSBURG      LGT RAIN  47  44  90 E8        30.13F
6HR MIN TEMP:  46; 6HR MAX TEMP:  47; 6HR PCP:  0.16;

$$

MSZ059>079-200100-
SOUTH MISSISSIPPI

CITY           SKY/WX    TMP DP  RH WIND       PRES   REMARKS
HATTIESBURG    RAIN      48  46  93 NE9       30.15R
6HR MIN TEMP:  47; 6HR MAX TEMP:  51; 6HR PCP:  0.34;

MCCOMB         LGT RAIN  45  43  93 VRB6      30.12S
6HR MIN TEMP:  44; 6HR MAX TEMP:  47; 6HR PCP:  0.43;

NATCHEZ        CLOUDY    45  43  93 E10G16    30.11F
6HR MIN TEMP:  45; 6HR MAX TEMP:  48; 6HR PCP:  0.21;

PINE BELT      CLOUDY    46  43  87 NE8       30.16R
6HR MIN TEMP:  46; 6HR MAX TEMP:  48; 6HR PCP:  0.36;

$$

MSZ080>082-200100-
COASTAL MISSISSIPPI

CITY           SKY/WX    TMP DP  RH WIND       PRES   REMARKS
BAY ST LOUIS   LGT RAIN  48  45  87 NE10      30.09S
BILOXI         LGT RAIN  48  48 100 NE15G23   30.09F
6HR MIN TEMP:  48; 6HR MAX TEMP:  53; 6HR PCP:  1.09;

PASCAGOULA     RAIN      48  47  96 N10       30.12R FOG
6HR MIN TEMP:  48; 6HR MAX TEMP:  54; 6HR PCP:  0.33;

GULFPORT       LGT RAIN  48  46  93 NE14      30.10R FOG
6HR MIN TEMP:  48; 6HR MAX TEMP:  52; 6HR PCP:  1.05;

$$



USA.gov is the U.S. government's official web portal to all federal, state and local government web resources and services.